Satellite-Ground Cal/Val Site Overpasses Predictions

Prediction of Satellite NPP Overpassing Cal/Val Site: Antarctic Dome C

Ground Cal/Val Site Location: Latitude: -75.10, Longitude: 123.35; Satellite-Ground Site NADIR distance within 100 km.

Table of predicted overpasses for the next 14.0 days since TLE Epoch: 3/7/2015
Interval Starting Time Ending Time Minimum Distance Time Minimum Distance (km)
1 03/07/2015 15:13:40 03/07/2015 15:13:51 03/07/2015 15:13:46 91.71
2 03/08/2015 14:54:41 03/08/2015 14:55:10 03/08/2015 14:54:55 19.66
3 03/10/2015 07:37:29 03/10/2015 07:37:58 03/10/2015 07:37:43 4.21
4 03/13/2015 15:00:52 03/13/2015 15:01:21 03/13/2015 15:01:06 17.01
5 03/14/2015 14:42:10 03/14/2015 14:42:23 03/14/2015 14:42:17 90.07
6 03/15/2015 07:43:40 03/15/2015 07:44:07 03/15/2015 07:43:54 39.95
7 03/16/2015 07:24:53 03/16/2015 07:25:14 03/16/2015 07:25:03 70.16
8 03/18/2015 15:07:05 03/18/2015 15:07:30 03/18/2015 15:07:18 54.02
9 03/19/2015 14:48:14 03/19/2015 14:48:39 03/19/2015 14:48:27 55.23
